Weather History for PHLI - January, 2012

Change the Weather History Date:

Saturday, January 21, 2012

  Actual Average Record
Temperature  
Mean Temperature 77 °F 72 °F  
Max Temperature 80 °F 78 °F 83 °F (1961)
Min Temperature 73 °F 65 °F 52 °F (1969)
Degree Days  
Heating Degree Days 0 0  
Month to date heating degree days 0 0  
Since 1 July heating degree days 0 0  
Cooling Degree Days 12 7  
Month to date cooling degree days 182 147  
Year to date cooling degree days 182 147  
Growing Degree Days 26 (Base 50)    
Moisture  
Dew Point 67 °F    
Average Humidity 76    
Maximum Humidity 84    
Minimum Humidity 67    
Precipitation  
Precipitation 0.00 in 0.12 in 4.18 in (1990)
Month to date precipitation 3.21 2.59  
Year to date precipitation 3.21 2.59  
Snow  
Snow 0.00 in - - ()
Month to date snowfall 0.0  
Since 1 July snowfall 0.0  
Snow Depth 0.00 in    
Sea Level Pressure  
Sea Level Pressure 30.15 in    
Wind  
Wind Speed 11 mph (ENE)    
Max Wind Speed 18 mph    
Max Gust Speed 23 mph    
Visibility 10 miles    
Events      
T = Trace of Precipitation, MM = Missing Value Source: NWS Daily Summary

Daily Weather History Graph

Daily Weather History Graph

Search for Another Location

Airport or City:

Trip Planner

Search our weather history database for the weather conditions in past years. The results will help you decide how hot, cold, wet, or windy it might be!

Date:

Astronomy

Jan. 21, 2012 Rise Set
Actual Time 7:18 AM HST 6:19 PM HST
Civil Twilight 6:54 AM HST 6:42 PM HST
Nautical Twilight 6:27 AM HST 7:10 PM HST
Astronomical Twilight 6:00 AM HST 7:36 PM HST
Moon 5:54 AM HST (1/21) 5:10 PM HST (1/21)
Length of Visible Light 11h 48m
Length of Day
11h 00m
Waning Crescent, 2% of the Moon is Illuminated
Jan 21
Waning Crescent
Jan 22
New
Jan 30
First Quarter
Feb 7
Full
Feb 14
Last Quarter

Hourly Weather History & Observations

Time (HST) Temp. Dew Point Humidity Pressure Visibility Wind Dir Wind Speed Gust Speed Precip Events Conditions
12:53 AM 73.9 °F 68.0 °F 82% 30.18 in 10.0 mi ENE 11.5 mph - N/A   Mostly Cloudy
1:00 AM 73.4 °F 68.0 °F 83% 30.18 in 10.0 mi ENE 11.5 mph - N/A   Mostly Cloudy
1:53 AM 73.0 °F 68.0 °F 84% 30.17 in 10.0 mi ENE 10.4 mph - N/A   Clear
2:53 AM 73.0 °F 68.0 °F 84% 30.16 in 10.0 mi NE 10.4 mph - N/A   Scattered Clouds
3:53 AM 73.0 °F 68.0 °F 84% 30.15 in 10.0 mi NE 11.5 mph - N/A   Mostly Cloudy
4:53 AM 73.0 °F 68.0 °F 84% 30.15 in 10.0 mi NNE 8.1 mph - N/A   Mostly Cloudy
5:53 AM 73.9 °F 68.0 °F 82% 30.16 in 10.0 mi NE 10.4 mph - N/A   Overcast
6:53 AM 73.9 °F 66.9 °F 79% 30.18 in 10.0 mi NE 11.5 mph - N/A   Mostly Cloudy
7:53 AM 73.9 °F 66.9 °F 79% 30.19 in 10.0 mi NE 9.2 mph - N/A   Mostly Cloudy
8:53 AM 77.0 °F 68.0 °F 74% 30.19 in 10.0 mi ENE 10.4 mph - N/A   Mostly Cloudy
9:00 AM 77.0 °F 66.2 °F 69% 30.20 in 10.0 mi NE 10.4 mph - N/A   Mostly Cloudy
9:13 AM 77.0 °F 66.2 °F 69% 30.20 in 10.0 mi ENE 9.2 mph - N/A   Scattered Clouds
9:53 AM 78.1 °F 66.9 °F 68% 30.20 in 10.0 mi NE 9.2 mph - N/A   Partly Cloudy
10:53 AM 78.1 °F 66.9 °F 68% 30.20 in 10.0 mi ENE 12.7 mph - N/A   Partly Cloudy
11:53 AM 79.0 °F 66.9 °F 66% 30.18 in 10.0 mi ENE 10.4 mph - N/A   Partly Cloudy
12:53 PM 78.1 °F 68.0 °F 71% 30.14 in 10.0 mi ENE 10.4 mph - N/A   Scattered Clouds
1:53 PM 79.0 °F 68.0 °F 69% 30.11 in 10.0 mi ENE 10.4 mph - N/A   Scattered Clouds
2:53 PM 79.0 °F 68.0 °F 69% 30.09 in 10.0 mi East 10.4 mph - N/A   Partly Cloudy
3:53 PM 78.1 °F 68.0 °F 71% 30.09 in 10.0 mi ENE 10.4 mph - N/A   Scattered Clouds
4:53 PM 77.0 °F 68.0 °F 74% 30.09 in 10.0 mi East 10.4 mph - N/A   Clear
5:53 PM 75.0 °F 68.0 °F 79% 30.10 in 10.0 mi ENE 9.2 mph - N/A   Mostly Cloudy
6:17 PM 73.4 °F 66.2 °F 78% 30.12 in 10.0 mi ENE 6.9 mph - N/A   Scattered Clouds
6:53 PM 73.9 °F 66.9 °F 79% 30.11 in 10.0 mi ENE 10.4 mph - N/A   Clear
7:53 PM 73.9 °F 68.0 °F 82% 30.12 in 10.0 mi East 13.8 mph - N/A   Clear
8:53 PM 73.9 °F 68.0 °F 82% 30.14 in 10.0 mi ENE 12.7 mph - N/A   Partly Cloudy
9:53 PM 73.9 °F 68.0 °F 82% 30.15 in 10.0 mi ENE 12.7 mph - N/A   Partly Cloudy
10:53 PM 73.9 °F 68.0 °F 82% 30.16 in 10.0 mi NE 15.0 mph - N/A   Scattered Clouds
11:16 PM 73.4 °F 66.2 °F 78% 30.16 in 10.0 mi ENE 15.0 mph - N/A   Mostly Cloudy
11:53 PM 73.0 °F 66.0 °F 79% 30.14 in 10.0 mi ENE 15.0 mph - N/A   Mostly Cloudy